Estación de Trinidad

Ultimos registro cada 15 minutos 78
Estación Fecha / Hora Temperatura Humedad Lluvia Velocidad Dirección Radiación Presion
78 Trinidad 07-05-2026 19:15 12,2 67 0 0,4 154 0 1026,8
77 Trinidad 07-05-2026 19:00 12,2 67 0 3,6 167 0 1027
76 Trinidad 07-05-2026 18:45 12,5 67 0 0,4 168 0 1026,7
75 Trinidad 07-05-2026 18:30 12,7 66 0 0 173 0 1026,4
74 Trinidad 07-05-2026 18:15 12,9 65 0 0,9 127 0 1026,7
73 Trinidad 07-05-2026 18:00 13,1 64 0 2,7 142 0 1026,9
72 Trinidad 07-05-2026 17:45 13,2 64 0 1,3 147 0 1026,8
71 Trinidad 07-05-2026 17:30 13,4 63 0 0,9 148 12 1026,9
70 Trinidad 07-05-2026 17:15 13,6 62 0 0,4 148 18 1026,8
69 Trinidad 07-05-2026 17:00 13,8 61 0 2,2 129 28 1026,8
68 Trinidad 07-05-2026 16:45 14 59 0 1,3 117 46 1026,8
67 Trinidad 07-05-2026 16:30 14,2 59 0 0,9 131 65 1026,7
66 Trinidad 07-05-2026 16:15 14,4 57 0 2,2 122 100 1026,4
65 Trinidad 07-05-2026 16:00 14,7 54 0 1,8 147 148 1026,8
64 Trinidad 07-05-2026 15:45 15 56 0 1,3 133 186 1026,8
63 Trinidad 07-05-2026 15:30 15,4 58 0 5,4 164 192 1027
62 Trinidad 07-05-2026 15:15 16,2 55 0 3,6 141 288 1026,5
61 Trinidad 07-05-2026 15:00 15,9 54 0 1,3 160 508 1026,5
60 Trinidad 07-05-2026 14:45 15,9 55 0 2,2 158 496 1026,4
59 Trinidad 07-05-2026 14:30 15,8 56 0 1,3 164 526 1026,6
58 Trinidad 07-05-2026 14:15 15,6 55 0 2,7 134 557 1026,8
57 Trinidad 07-05-2026 14:00 16 57 0 1,3 214 578 1026,8
56 Trinidad 07-05-2026 13:45 15,4 61 0 2,2 159 592 1027
55 Trinidad 07-05-2026 13:30 15,9 56 0 4 163 613 1027,3
54 Trinidad 07-05-2026 13:15 15,7 58 0 0,4 328 621 1027
53 Trinidad 07-05-2026 13:00 15,4 60 0 0 314 629 1027,4
52 Trinidad 07-05-2026 12:45 15,3 60 0 0,9 322 638 1027,7
51 Trinidad 07-05-2026 12:30 14,8 58 0 1,8 146 638 1027,9
50 Trinidad 07-05-2026 12:15 14,8 60 0 1,3 146 633 1028,2
49 Trinidad 07-05-2026 12:00 14,5 62 0 0 149 626 1028,3
48 Trinidad 07-05-2026 11:45 14,3 63 0 0,4 178 617 1028,6
47 Trinidad 07-05-2026 11:30 13,6 63 0 1,3 166 599 1028,5
46 Trinidad 07-05-2026 11:15 13,2 67 0 2,2 226 580 1028,8
45 Trinidad 07-05-2026 11:00 12,8 70 0 1,8 162 554 1028,9
44 Trinidad 07-05-2026 10:45 12,4 71 0 1,3 158 526 1028,7
43 Trinidad 07-05-2026 10:30 12,1 73 0 0,9 166 494 1028,7
42 Trinidad 07-05-2026 10:15 12 74 0 0,4 178 462 1028,7
41 Trinidad 07-05-2026 10:00 11,4 76 0 0,9 158 424 1028,9
40 Trinidad 07-05-2026 09:45 10,9 76 0 1,8 158 383 1028,8
39 Trinidad 07-05-2026 09:30 10,4 77 0 0,9 147 343 1028,9
38 Trinidad 07-05-2026 09:15 10,2 78 0 1,3 166 63 1028,7
37 Trinidad 07-05-2026 09:00 9,9 82 0 0 154 39 1028,4
36 Trinidad 07-05-2026 08:45 9,3 83 0 0,9 156 127 1028,5
35 Trinidad 07-05-2026 08:30 8,4 86 0 0 166 144 1028,3
34 Trinidad 07-05-2026 08:15 7,6 88 0 0 166 93 1028
33 Trinidad 07-05-2026 08:00 6,9 88 0 0 166 23 1028,1
32 Trinidad 07-05-2026 07:45 7 87 0 0 166 18 1027,7
31 Trinidad 07-05-2026 07:30 7,3 86 0 0 166 5 1027,5
30 Trinidad 07-05-2026 07:15 7,9 84 0 0 166 0 1027,4
29 Trinidad 07-05-2026 07:00 8,1 85 0 0 166 0 1027,6
28 Trinidad 07-05-2026 06:45 8,3 85 0 0 166 0 1027,4
27 Trinidad 07-05-2026 06:30 8,4 84 0 0 166 0 1027,3
26 Trinidad 07-05-2026 06:15 8,8 84 0 0,4 166 0 1027,2
25 Trinidad 07-05-2026 06:00 9,1 83 0 0 166 0 1027
24 Trinidad 07-05-2026 05:45 9,3 83 0 0 166 0 1026,8
23 Trinidad 07-05-2026 05:30 9,4 83 0 0 166 0 1026,8
22 Trinidad 07-05-2026 05:15 9,6 84 0 0 166 0 1026,5
21 Trinidad 07-05-2026 05:00 9,6 84 0 0 166 0 1026,2
20 Trinidad 07-05-2026 04:45 9,9 84 0 0 164 0 1025,9
19 Trinidad 07-05-2026 04:30 10,1 84 0 0 167 0 1025,7
18 Trinidad 07-05-2026 04:15 10,2 84 0 0 168 0 1025,8
17 Trinidad 07-05-2026 04:00 10,1 84 0 0 166 0 1025,7
16 Trinidad 07-05-2026 03:45 10,2 84 0 0 166 0 1025,5
15 Trinidad 07-05-2026 03:30 10,2 84 0 0 166 0 1025,6
14 Trinidad 07-05-2026 03:15 10,2 84 0 0 166 0 1025,8
13 Trinidad 07-05-2026 03:00 10,2 83 0 0 166 0 1025,5
12 Trinidad 07-05-2026 02:45 10,2 84 0 0 167 0 1025,3
11 Trinidad 07-05-2026 02:30 10,2 84 0 0 167 0 1025,6
10 Trinidad 07-05-2026 02:15 10,3 84 0 0 167 0 1025,5
9 Trinidad 07-05-2026 02:00 10,3 84 0 0,4 167 0 1025,3
8 Trinidad 07-05-2026 01:45 10,3 84 0 0,4 167 0 1025,1
7 Trinidad 07-05-2026 01:30 10,2 84 0 0 167 0 1025
6 Trinidad 07-05-2026 01:15 10,2 84 0 0,4 167 0 1024,5
5 Trinidad 07-05-2026 01:00 9,9 86 0 0 167 0 1024,5
4 Trinidad 07-05-2026 00:45 10,2 85 0 0 167 0 1024,7
3 Trinidad 07-05-2026 00:30 10,6 83 0 0 167 0 1024,7
2 Trinidad 07-05-2026 00:15 10,8 83 0 0 167 0 1024,5
1 Trinidad 07-05-2026 00:00 10,9 82 0 0 167 0 1024,3